STARLINK-5939 (56015 NORAD) Tracking and Keplerian Element Data

This shows tracking and keplerian element data for the satellite.

Feedback or suggestion? Click here.




ElementValue
Catalog56015
NameSTARLINK-5939
Epoch Orbit717
Epoch Day127.00001157
Epoch Year2023
RAAN293.2064
Inclination42.9999
Eccentricity0.0001426
Argument of Perigee272.4584
Mean Anonmoly305.1281
Mean Motion15.54911151
Decay Rate-0.00925706
L11 56015U 23042AF 23127.00001157 -.00925706 00000+0 -14882-1 0 9991
L22 56015 42.9999 293.2064 0001426 272.4584 305.1281 15.54911151 7170



Live tracking and technical data element details for STARLINK-5939 (NORAD 56015). STARLINK-5939 can be tracked NOW for your location showing map with azimuth and elevation plus other details from your city location.







IsCatalogInMostPopularTable: catalog: 56015, numindb: 1
Update: records affected: 1



GetName: 56015 STARLINK-5939

Hit Count: updated at: Mon, 05 Jun 2023 01:07:12 GMT